#timestamp,LO_Frequency,Hit,StdDev 
1578466055.7,286047052.8,P
1578466075.5,286047053.0,N
1578466095.4,286047051.3,N
1578466115.2,286047051.0,N
1578466135.1,286047053.6,N
1578466136.0,286047053.6,N
1578466155.8,286047051.7,N
1578466175.6,286047051.1,N
1578466195.5,286047051.3,N
1578466215.3,286047053.2,N
1578466235.1,286047052.6,N
1578466255.9,286047056.7,N
1578466275.7,286047059.8,N
1578466295.6,286047059.6,N
1578466315.4,286047058.1,N
1578466335.2,286047058.1,N
1578466355.1,286047056.3,N
1578466356.0,286047056.3,N
1578466375.8,286047056.5,N
1578466395.6,286047054.2,N
1578466415.5,286047057.0,N
1578466435.3,286047054.8,N
1578466455.2,286047054.5,N
1578466475.9,286047056.3,N
1578466495.7,286047058.2,N
1578466515.6,286047056.9,N
1578466535.4,286047052.9,N
1578466555.2,286047054.4,N
1578466575.1,286047054.7,N
1578466576.0,286047054.7,N
1578466595.8,286047054.2,Y
1578466615.7,286047002.8,P
1578466635.5,286047000.1,N
1578466655.3,286046999.7,N
1578466675.2,286047000.4,N
1578466695.0,286047002.6,N
1578466695.9,286047002.6,N
1578466715.8,286047001.6,N
1578466735.6,286047004.4,N
1578466755.4,286047003.6,N
1578466775.3,286047002.9,N
1578466795.1,286047009.2,N
